011  
ASUS42 KKEY 221710  
RWRKEY  
 
FLORIDA REGIONAL WEATHER ROUNDUP FOR THE FLORIDA KEYS  
NATIONAL WEATHER SERVICE KEY WEST FLORIDA  
100 PM EDT TUE JUL 22 2014  
   
..SOUTH FLORIDA AND THE KEYS
 
 
 
CITY SKY/WX TMP DP RH WIND PRES REMARKS
 
FORT MYERS PTSUNNY 81 74 79 SE10 30.05S THUNDER  
SW REGIONAL AP TSTM 74 72 93 W17G24 30.08R VSB 1/4  
NAPLES TSTM 78 77 96 S8 30.08R FOG  
MIAMI CLOUDY 85 76 74 S9 30.07F HX 94  
WEST KENDALL CLOUDY 83 74 74 S10 30.07F  
HOMESTEAD CLOUDY 77 75 94 S8 30.06F THUNDER  
MARATHON CLOUDY 82 72 71 W6 30.08S  
BOCA CHICA NAS CLOUDY 80 74 81 SE5 30.07F  
KEY WEST INTL CLOUDY 80 72 76 E6 30.08F  
   
..INTERNATIONAL WEATHER
 
 
 
CITY SKY/WX TMP DP RH WIND PRES REMARKS
 
NASSAU BAHAMAS NOT AVBL  
CANCUN MEXICO MOSUNNY 90 75 62 E8 30.05R HX 100  
COZUMEL MEXICO PTSUNNY 86 73 66 E5 30.04S HX 93  
 
ADJACENT COASTAL WATERS...  
 
STATION/POSITION TIME SKY/WX TEMP WIND PRES WAVE
 
AIR SEA DIR/SP/G HT/PER  
(UTC) (F) (DEG/KT/KT) (MB) (FT/S)  
PULASKI SHOAL LI 1700 85 CALM / 1 1018.2F  
SAND KEY 1700 80 100/ 10/ 12 1018.3F  
SOMBRERO KEY 1700 79 250/ 11/ 12 1019.4F  
LONG KEY 1600 77 87 120/ 7/ 8 1019.2F  
MOLASSES REEF 1700 80 86 320/ 8/ 10 1018.2S  
FOWEY ROCKS 1700 84 85 200/ 11/ 12 1018.6F  
BUOY 42080 NOT AVBL  
 

 
 
CLICK HERE TO GO TO PREVIOUS BULLETINS.

The Nexlab FL Page Main Text Page